CW5542 Weather Reports


time (UTC)temp
F
wind
direction
speed
knots
gust
knots
rain 1hr
in
rain 24hr
in
rain mn
in
humidity
%
barometer
mb
20260503184009 62 137 1.7 34.8 0.00 0.00 0.00 38 1010.4
20260503183008 62 75 7.0 45.2 0.00 0.00 0.00 39 1010.6
20260503182008 62 256 0.0 38.2 0.00 0.00 0.00 40 1010.9
20260503181008 61 212 15.6 24.3 0.00 0.00 0.00 41 1010.8
20260503175006 60 210 8.7 26.1 0.00 0.00 0.00 43 1011.5
20260503174006 60 235 1.7 31.3 0.00 0.00 0.00 41 1011.5
20260503173005 60 224 19.1 33.0 0.00 0.00 0.00 42 1011.6
20260503172004 60 187 0.0 22.6 0.00 0.00 0.00 43 1011.8
20260503171004 60 204 12.2 27.8 0.00 0.00 0.00 42 1011.9
20260503150956 51 171 0.0 20.9 0.00 0.00 0.00 52 1013.3
20260503130951 49 220 0.0 17.4 0.00 0.00 0.00 52 1013.5
20260503081007 38 231 0.0 0.0 0.00 0.00 0.00 60 1014.3
20260503072005 38 164 0.0 0.0 0.00 0.00 0.00 60 1014.6
20260503054959 38 229 0.0 0.0 0.00 0.00 0.00 60 1015.2
20260503053958 38 179 0.0 0.0 0.00 0.00 0.00 60 1015.3
20260503052958 37 223 0.0 0.0 0.00 0.00 0.00 60 1015.3
20260503050957 37 223 0.0 0.0 0.00 0.00 0.00 60 1015.4
20260503045956 38 222 0.0 0.0 0.00 0.00 0.00 60 1015.5
20260503044956 38 221 0.0 0.0 0.00 0.00 0.00 60 1015.5
20260503043955 38 224 0.0 0.0 0.00 0.00 0.00 60 1015.6
20260503042954 38 226 0.0 0.0 0.00 0.00 0.00 59 1015.5
20260503041954 38 229 0.0 0.0 0.00 0.00 0.00 60 1015.6
20260503040953 38 226 0.0 0.0 0.00 0.00 0.00 60 1015.6
20260503035952 38 225 0.0 0.0 0.00 0.00 0.00 59 1015.7
20260503034952 38 226 0.0 0.0 0.00 0.00 0.00 61 1015.7
20260503033952 38 226 0.0 0.0 0.00 0.00 0.00 62 1015.8
20260503032951 38 226 0.0 0.0 0.00 0.00 0.00 59 1015.9
20260503031950 38 226 0.0 0.0 0.00 0.00 0.00 60 1015.9
20260503030950 39 226 0.0 0.0 0.00 0.00 0.00 58 1015.8
20260503025949 39 226 0.0 0.0 0.00 0.00 0.00 57 1015.9
20260503024948 39 226 0.0 0.0 0.00 0.00 0.00 57 1015.9
20260503023947 39 226 0.0 0.0 0.00 0.00 0.00 60 1016.0
20260503022947 39 226 0.0 0.0 0.00 0.00 0.00 59 1016.0
20260503021946 39 226 0.0 0.0 0.00 0.00 0.00 59 1015.9
20260503020946 40 226 0.0 0.0 0.00 0.00 0.00 57 1015.9
20260503015945 40 226 0.0 0.0 0.00 0.00 0.00 55 1015.9
20260503014945 41 226 0.0 0.0 0.00 0.00 0.00 53 1015.9
20260503013944 41 226 0.0 0.0 0.00 0.00 0.00 52 1015.9
20260503013013 42 226 0.0 0.0 0.00 0.00 0.00 51 1015.8
20260503012012 43 223 0.0 0.0 0.00 0.00 0.00 50 1015.7
20260503010942 43 223 0.0 0.0 0.00 0.00 0.00 48 1015.6
20260503010011 44 223 0.0 0.0 0.00 0.00 0.00 48 1015.7
20260503005010 44 175 0.0 0.0 0.00 0.00 0.00 48 1015.5
20260503003009 46 290 0.0 0.0 0.00 0.00 0.00 46 1015.4
20260503002009 46 290 0.0 0.0 0.00 0.00 0.00 46 1015.5
20260503001008 47 279 0.0 0.0 0.00 0.00 0.00 44 1015.5
20260503000007 47 209 0.0 0.0 0.00 0.00 0.00 44 1015.5
20260502235007 47 27 0.0 0.0 0.00 0.00 0.00 44 1015.4
20260502234006 47 315 0.0 0.0 0.00 0.00 0.00 45 1015.4
20260502233006 47 316 0.0 0.0 0.00 0.00 0.00 45 1015.5
20260502232006 47 314 0.0 0.0 0.00 0.00 0.00 44 1015.5
20260502231006 47 313 0.0 0.0 0.00 0.00 0.00 44 1015.5
20260502225005 47 316 0.0 0.0 0.00 0.00 0.00 42 1015.6
20260502224004 47 311 0.0 0.0 0.00 0.00 0.00 43 1015.6
20260502223003 48 308 0.0 0.0 0.00 0.00 0.00 44 1015.6
20260502222002 48 268 0.0 0.0 0.00 0.00 0.00 43 1015.6
20260502215001 47 317 0.0 0.0 0.00 0.00 0.00 47 1015.6
20260502214000 47 224 0.0 0.0 0.00 0.00 0.00 47 1015.7
20260502213000 47 308 0.0 0.0 0.00 0.00 0.00 47 1015.8
20260502212000 47 35 0.0 0.0 0.00 0.00 0.00 47 1015.7
20260502210959 47 297 0.0 0.0 0.00 0.00 0.00 47 1015.8
20260502205958 47 301 0.0 1.7 0.00 0.00 0.00 46 1015.9
20260502204958 47 307 0.0 0.0 0.00 0.00 0.00 48 1016.0
20260502203957 46 296 0.0 1.7 0.00 0.00 0.00 47 1016.1
20260502202956 47 308 0.0 1.7 0.00 0.00 0.00 44 1016.1
20260502201956 48 309 0.0 0.0 0.00 0.00 0.00 44 1016.1
20260502200955 47 315 0.0 0.0 0.00 0.00 0.00 44 1016.2
20260502195954 47 264 0.0 0.0 0.00 0.00 0.00 43 1016.4
20260502192952 46 297 0.0 0.0 0.00 0.00 0.00 45 1016.6
20260502190951 46 304 0.0 8.7 0.00 0.00 0.00 44 1016.9